Preview of NWS' New Version of Forecast
This preview is not operational and should not be used for support decisions.

Regional Weather Roundup (RWR)

Issued by National Weather Service (NWS)

                            
000
ASUS46 KPQR 232010
RWROR 

OREGON REGIONAL WEATHER ROUNDUP
NATIONAL WEATHER SERVICE PORTLAND OR
100 PM PDT FRI AUG 23 2019

NOTE: "FAIR" INDICATES FEW OR NO CLOUDS BELOW 12,000 FEET WITH
NO SIGNIFICANT WEATHER AND/OR OBSTRUCTIONS TO VISIBILITY.

ORZ001>013-232100-
NORTHWEST OREGON

  
CITY           SKY/WX    TMP DP  RH WIND       PRES   REMARKS
ASTORIA        SUNNY     69  57  65 N10       29.95F                  
TILLAMOOK      SUNNY     70  55  60 NW5       29.96F                  
NEWPORT        SUNNY     64  57  77 N18G24    29.98S                  
FLORENCE       FAIR      66  55  68 NW14      29.94S                  
PORTLAND       MOSUNNY   72  55  55 NW5       29.92F                  
VANCOUVER WA   SUNNY     72  54  53 VRB7      29.92F                  
SCAPPOOSE      SUNNY     76  55  48 N10       29.91F                  
HILLSBORO      SUNNY     74  55  51 SE5       29.92F                  
AURORA         SUNNY     74  53  48 VRB5      29.93F                  
MCMINNVILLE    SUNNY     76  53  44 VRB3      29.91F                  
SALEM          SUNNY     74  52  46 NW8       29.91F                  
CORVALLIS      SUNNY     74  55  51 VRB5      29.92F                  
EUGENE         MOSUNNY   75  53  46 N8        29.92F                  
CRESWELL       SUNNY     73  55  53 VRB6G12   29.91F                  
$$

ORZ021-028-232100-
SOUTHWEST OREGON

  
CITY           SKY/WX    TMP DP  RH WIND       PRES   REMARKS
NORTH BEND     SUNNY     66  57  72 N25       29.93F                  
BROOKINGS      SUNNY     69  56  62 VRB5      29.84S                  
ROSEBURG       SUNNY     75  55  49 VRB5      29.90F                  
SEXTON SUMMIT  SUNNY     76  57  51 VRB5      30.00F                  
GRANTS PASS    FAIR      79  55  44 CALM      29.91F                  
MEDFORD        SUNNY     79  56  45 CALM      29.87F                  
$$

ORZ014>016-041-232100-
COLUMBIA GORGE

  
CITY           SKY/WX    TMP DP  RH WIND       PRES   REMARKS
TROUTDALE      SUNNY     73  55  53 W7G16     29.92F                  
HOOD RIVER     SUNNY     77  50  38 CALM      29.89F                  
THE DALLES     SUNNY     81  52  36 CALM      29.86F                  
$$

ORZ029>031-041-044-049-050-061>064-502-503-505>511-232100-
EASTERN OREGON

  
CITY           SKY/WX    TMP DP  RH WIND       PRES   REMARKS
MADRAS         SUNNY     79  37  22 CALM      29.97F                  
REDMOND        SUNNY     81  36  19 CALM      29.96F                  
BEND           SUNNY     79  39  24 VRB3      29.97F                  
PRINEVILLE     SUNNY     77  32  19 VRB5G12   29.97F                  
KLAMATH FALLS  SUNNY     79  40  24 NW3       30.01F                  
LAKEVIEW       SUNNY     80  38  22 SE8       30.04F                  
HERMISTON      SUNNY     82  51  34 VRB3      29.88F                  
PENDLETON      MOSUNNY   82  47  29 VRB6      29.90F                  
JOHN DAY       SUNNY     78  42  27 CALM      29.99F                  
MEACHAM        SUNNY     75  46  35 VRB6      29.99S                  
LA GRANDE      SUNNY     78  46  32 VRB3      29.95F                  
BAKER CITY     SUNNY     80  45  28 NW3       29.97F                  
BURNS          SUNNY     78  39  24 VRB3      30.03F                  
ROME             N/A     82  36  19 W7        30.00F                  
ONTARIO        SUNNY     84  45  25 SW5       29.94F                  
$$